Rock Hill, SC

5:40 PM EDT on May 22, 2017 (GMT -0400)
Rock Hill-York County-Bryant

Weather History for KUZA - January, 2013

Change the Weather History Date:

Tuesday, January 22, 2013

  Actual Average Record
Temperature  
Mean Temperature 36 °F -  
Max Temperature 43 °F 50 °F 73 °F (1967)
Min Temperature 28 °F 30 °F 6 °F (1985)
Degree Days  
Heating Degree Days 30    
Moisture  
Dew Point 11 °F    
Average Humidity 38    
Maximum Humidity 61    
Minimum Humidity 15    
Precipitation  
Precipitation 0.00 in - - ()
Sea Level Pressure  
Sea Level Pressure 30.18 in    
Wind  
Wind Speed 6 mph (NNW)    
Max Wind Speed 13 mph    
Max Gust Speed 23 mph    
Visibility 10 miles    
Events      
Averages and records for this station are not official NWS values.
T = Trace of Precipitation, MM = Missing Value Source: NWS Daily Summary

Daily Weather History Graph

Daily Weather History Graph

Search for Another Location

Airport or City:

Trip Planner

Search our weather history database for the weather conditions in past years. The results will help you decide how hot, cold, wet, or windy it might be!

Date:

Astronomy

Jan. 22, 2013 Rise Set
Actual Time 7:29 AM EST 5:43 PM EST
Civil Twilight 7:01 AM EST 6:10 PM EST
Nautical Twilight 6:31 AM EST 6:41 PM EST
Astronomical Twilight 6:01 AM EST 7:11 PM EST
Moon 2:06 PM EST 3:47 AM EST
Length of Visible Light 11h 08m
Length of Day
10h 14m
Waxing Gibbous, 82% of the Moon is Illuminated
Jan 22
Waxing Gibbous
Jan 26
Full
Feb 3
Last Quarter
Feb 10
New
Feb 17
First Quarter

Hourly Weather History & Observations

Time (EST) Temp. Windchill Dew Point Humidity Pressure Visibility Wind Dir Wind Speed Gust Speed Precip Events Conditions
12:54 AM 39.0 °F 34.8 °F 17.1 °F 41% 30.02 in 10.0 mi West 5.8 mph - N/A   Clear
1:54 AM 37.0 °F 32.4 °F 18.0 °F 46% 30.04 in 10.0 mi West 5.8 mph - N/A   Clear
2:54 AM 37.9 °F 33.5 °F 16.0 °F 41% 30.05 in 10.0 mi WNW 5.8 mph - N/A   Clear
3:54 AM 30.9 °F 26.2 °F 19.0 °F 61% 30.06 in 10.0 mi NNW 4.6 mph - N/A   Clear
4:54 AM 35.1 °F 30.1 °F 14.0 °F 42% 30.07 in 10.0 mi WNW 5.8 mph - N/A   Clear
5:54 AM 32.0 °F 24.8 °F 14.0 °F 48% 30.12 in 10.0 mi North 8.1 mph - N/A   Clear
6:54 AM 30.9 °F 22.8 °F 12.0 °F 46% 30.14 in 10.0 mi North 9.2 mph - N/A   Clear
7:54 AM 30.0 °F 21.1 °F 10.9 °F 45% 30.17 in 10.0 mi North 10.4 mph - N/A   Clear
8:54 AM 34.0 °F 26.6 °F 10.0 °F 37% 30.21 in 10.0 mi North 9.2 mph - N/A   Clear
9:54 AM 36.0 °F 29.6 °F 9.0 °F 33% 30.24 in 10.0 mi NNW 8.1 mph - N/A   Clear
10:54 AM 37.9 °F 35.5 °F 8.1 °F 29% 30.25 in 10.0 mi Variable 3.5 mph - N/A   Clear
11:54 AM 39.9 °F 35.1 °F 6.1 °F 25% 30.23 in 10.0 mi Variable 6.9 mph - N/A   Clear
12:54 PM 43.0 °F 37.2 °F 9.0 °F 25% 30.22 in 10.0 mi NNW 10.4 mph - N/A   Clear
1:54 PM 42.1 °F 40.2 °F 8.1 °F 25% 30.19 in 10.0 mi Variable 3.5 mph - N/A   Clear
2:54 PM 43.0 °F 36.4 °F -2.0 °F 15% 30.20 in 10.0 mi WNW 12.7 mph 23.0 mph N/A   Clear
3:54 PM 43.0 °F 36.8 °F 1.0 °F 17% 30.20 in 10.0 mi NW 11.5 mph - N/A   Clear
7:54 PM 30.9 °F - 15.1 °F 52% 30.24 in 10.0 mi Calm Calm - N/A   Clear
8:54 PM 28.9 °F 25.2 °F 14.0 °F 54% 30.25 in 10.0 mi North 3.5 mph - N/A   Clear
9:54 PM 32.0 °F 28.7 °F 10.9 °F 42% 30.27 in 10.0 mi NNE 3.5 mph - N/A   Clear
10:54 PM 30.0 °F - 9.0 °F 41% 30.27 in 10.0 mi Calm Calm - N/A   Clear
11:54 PM 28.9 °F - 8.1 °F 41% 30.28 in 10.0 mi Calm Calm - N/A   Clear